Location: Newark
(45.2500°N, 7.5833°E)
Time: 11:20:25
(UTC+00:00)

SR - Pass Details

Date: 30 January 2020
Orbit: 575 x 880 km, 66.7° (Epoch: 25 February)

Event Time Altitude Azimuth Distance (km) Brightness Sun altitude
Exits shadow 03:44:44 20° 13° (NNE) 1,812 ? -33.2°
Maximum altitude 03:46:20 23° 37° (NE) 1,671 ? -32.9°
Drops below altitude 10° 03:50:28 10° 89° (E) 2,297 ? -32.2°
Sets 03:53:15 0° 104° (ESE) 3,161 ? -31.7°
